{"data":{"norad_id":68532,"intl_designator":"2026-068AA","name":"STARLINK-36249","alt_names":[],"object_type":"PAYLOAD","status":"ACTIVE","operator":null,"country":"US","launch_date":"2026-03-30","launch_site_code":"AFETR","launch_vehicle":null,"mission":null,"orbit_class":"UNKNOWN","rcs_meters":null,"size_class":null,"mass_kg":null,"dimensions":null,"purposes":["comms"],"wikipedia_slug":null,"has_3d_model":false,"image_url":null,"decayed_at":null,"tle_current":{"epoch":"2026-09-19T20:03:49.385664Z","epoch_age_seconds":105373,"freshness":"FRESH","line1":"1 68532U 26068AA  26262.83598826  .00013112  00000+0  39852-3 0  9990","line2":"2 68532  53.1587 302.9355 0001761  83.5714 276.5489 15.34400621 26730","mean_motion":15.34400621,"eccentricity":0.0001761,"inclination_deg":53.1587,"raan_deg":302.9355,"arg_perigee_deg":83.5714,"mean_anomaly_deg":276.5489,"bstar":0.00039852,"rev_number":2673,"period_min":93.84772009943,"perigee_km":461.49672282359,"apogee_km":463.90606610612,"semimajor_km":6840.8383944649,"source":"CELESTRAK","updated_at":"2026-09-20T09:00:43.908229Z"}}}